| time (UTC) | temp F | wind direction | speed MPH | gust MPH | rain 1hr in | rain 24hr in | rain mn in | humidity % | barometer mb |
| 20260506232812 | 85 | 344 | 4.0 | 8.0 | 0.00 | 0.00 | 0.00 | 100 | 1013.8 |
| 20260506232312 | 85 | 316 | 4.0 | 7.0 | 0.00 | 0.00 | 0.00 | 100 | 1013.7 |
| 20260506231812 | 85 | 274 | 5.0 | 5.0 | 0.00 | 0.00 | 0.00 | 100 | 1013.7 |
| 20260506231312 | 85 | 28 | 1.0 | 7.0 | 0.00 | 0.00 | 0.00 | 100 | 1013.8 |
| 20260506230812 | 86 | 277 | 2.0 | 8.0 | 0.00 | 0.00 | 0.00 | 100 | 1013.7 |
| 20260506230312 | 86 | 331 | 8.0 | 8.0 | 0.00 | 0.00 | 0.00 | 100 | 1013.7 |
| 20260506225812 | 86 | 296 | 2.0 | 4.0 | 0.00 | 0.00 | 0.00 | 100 | 1013.6 |
| 20260506225312 | 86 | 225 | 0.0 | 7.0 | 0.00 | 0.00 | 0.00 | 100 | 1013.6 |
| 20260506224812 | 86 | 355 | 2.0 | 9.0 | 0.00 | 0.00 | 0.00 | 100 | 1013.6 |
| 20260506224312 | 86 | 98 | 1.0 | 4.0 | 0.00 | 0.00 | 0.00 | 100 | 1013.6 |
| 20260506223812 | 86 | 352 | 2.0 | 8.0 | 0.00 | 0.00 | 0.00 | 100 | 1013.6 |
| 20260506223312 | 87 | 281 | 6.0 | 9.0 | 0.00 | 0.00 | 0.00 | 100 | 1013.4 |
| 20260506222812 | 87 | 299 | 1.0 | 5.0 | 0.00 | 0.00 | 0.00 | 100 | 1013.5 |
| 20260506222312 | 87 | 282 | 1.0 | 8.0 | 0.00 | 0.00 | 0.00 | 100 | 1013.3 |
| 20260506221812 | 87 | 288 | 0.0 | 6.0 | 0.00 | 0.00 | 0.00 | 100 | 1013.6 |
| 20260506221312 | 87 | 264 | 4.0 | 7.0 | 0.00 | 0.00 | 0.00 | 100 | 1013.7 |
| 20260506220812 | 87 | 300 | 3.0 | 6.0 | 0.00 | 0.00 | 0.00 | 100 | 1013.8 |
| 20260506220312 | 87 | 326 | 3.0 | 9.0 | 0.00 | 0.00 | 0.00 | 100 | 1013.7 |
| 20260506215812 | 87 | 274 | 2.0 | 8.0 | 0.00 | 0.00 | 0.00 | 100 | 1013.8 |
| 20260506215312 | 87 | 326 | 5.0 | 8.0 | 0.00 | 0.00 | 0.00 | 100 | 1013.8 |
| 20260506214812 | 87 | 275 | 1.0 | 8.0 | 0.00 | 0.00 | 0.00 | 100 | 1013.8 |
| 20260506214312 | 87 | 291 | 6.0 | 9.0 | 0.00 | 0.00 | 0.00 | 100 | 1013.8 |
| 20260506213812 | 87 | 292 | 3.0 | 8.0 | 0.00 | 0.00 | 0.00 | 100 | 1013.8 |
| 20260506213312 | 87 | 307 | 5.0 | 8.0 | 0.00 | 0.00 | 0.00 | 100 | 1013.8 |
| 20260506212812 | 87 | 354 | 2.0 | 8.0 | 0.00 | 0.00 | 0.00 | 100 | 1013.9 |
| 20260506212312 | 87 | 340 | 5.0 | 9.0 | 0.00 | 0.00 | 0.00 | 100 | 1013.9 |
| 20260506211812 | 87 | 337 | 5.0 | 9.0 | 0.00 | 0.00 | 0.00 | 100 | 1013.9 |
| 20260506211312 | 87 | 1 | 3.0 | 11.0 | 0.00 | 0.00 | 0.00 | 100 | 1013.9 |
| 20260506210812 | 88 | 230 | 1.0 | 8.0 | 0.00 | 0.00 | 0.00 | 100 | 1013.8 |
| 20260506210312 | 88 | 15 | 3.0 | 8.0 | 0.00 | 0.00 | 0.00 | 100 | 1013.8 |
| 20260506205812 | 88 | 320 | 2.0 | 7.0 | 0.00 | 0.00 | 0.00 | 100 | 1013.7 |
| 20260506205312 | 88 | 300 | 2.0 | 8.0 | 0.00 | 0.00 | 0.00 | 100 | 1013.7 |
| 20260506204812 | 88 | 305 | 5.0 | 6.0 | 0.00 | 0.00 | 0.00 | 100 | 1013.7 |
| 20260506204312 | 89 | 250 | 3.0 | 10.0 | 0.00 | 0.00 | 0.00 | 100 | 1013.7 |
| 20260506203812 | 89 | 123 | 2.0 | 8.0 | 0.00 | 0.00 | 0.00 | 100 | 1013.7 |
| 20260506203312 | 89 | 310 | 3.0 | 7.0 | 0.00 | 0.00 | 0.00 | 100 | 1013.6 |
| 20260506202812 | 89 | 279 | 1.0 | 5.0 | 0.00 | 0.00 | 0.00 | 100 | 1013.6 |
| 20260506202312 | 89 | 300 | 1.0 | 6.0 | 0.00 | 0.00 | 0.00 | 100 | 1013.7 |
| 20260506201812 | 89 | 272 | 0.0 | 6.0 | 0.00 | 0.00 | 0.00 | 100 | 1013.7 |
| 20260506201312 | 89 | 319 | 2.0 | 5.0 | 0.00 | 0.00 | 0.00 | 100 | 1013.8 |
| 20260506200812 | 89 | 312 | 0.0 | 7.0 | 0.00 | 0.00 | 0.00 | 100 | 1013.8 |
| 20260506200312 | 89 | 213 | 3.0 | 9.0 | 0.00 | 0.00 | 0.00 | 100 | 1013.8 |
| 20260506195812 | 89 | 181 | 0.0 | 8.0 | 0.00 | 0.00 | 0.00 | 100 | 1013.9 |
| 20260506195312 | 89 | 203 | 3.0 | 10.0 | 0.00 | 0.00 | 0.00 | 100 | 1013.8 |
| 20260506194812 | 89 | 175 | 2.0 | 6.0 | 0.00 | 0.00 | 0.00 | 100 | 1013.8 |
| 20260506194312 | 90 | 310 | 2.0 | 8.0 | 0.00 | 0.00 | 0.00 | 100 | 1013.8 |
| 20260506193812 | 90 | 292 | 1.0 | 6.0 | 0.00 | 0.00 | 0.00 | 100 | 1013.9 |
| 20260506193312 | 90 | 312 | 2.0 | 9.0 | 0.00 | 0.00 | 0.00 | 100 | 1013.8 |
| 20260506192812 | 90 | 272 | 1.0 | 9.0 | 0.00 | 0.00 | 0.00 | 100 | 1013.9 |
| 20260506192312 | 90 | 229 | 0.0 | 8.0 | 0.00 | 0.00 | 0.00 | 100 | 1013.8 |
| 20260506191812 | 90 | 210 | 0.0 | 9.0 | 0.00 | 0.00 | 0.00 | 100 | 1013.7 |
| 20260506191312 | 89 | 230 | 5.0 | 11.0 | 0.00 | 0.00 | 0.00 | 100 | 1014.0 |
| 20260506190812 | 89 | 194 | 4.0 | 5.0 | 0.00 | 0.00 | 0.00 | 100 | 1014.0 |
| 20260506190312 | 89 | 309 | 0.0 | 9.0 | 0.00 | 0.00 | 0.00 | 100 | 1014.1 |
| 20260506185812 | 89 | 302 | 1.0 | 10.0 | 0.00 | 0.00 | 0.00 | 100 | 1014.2 |
| 20260506185312 | 89 | 274 | 4.0 | 9.0 | 0.00 | 0.00 | 0.00 | 100 | 1014.4 |
| 20260506184812 | 90 | 281 | 3.0 | 9.0 | 0.00 | 0.00 | 0.00 | 100 | 1014.4 |
| 20260506184312 | 90 | 208 | 0.0 | 12.0 | 0.00 | 0.00 | 0.00 | 100 | 1014.5 |
| 20260506183812 | 90 | 300 | 3.0 | 9.0 | 0.00 | 0.00 | 0.00 | 100 | 1014.6 |
| 20260506183312 | 90 | 109 | 0.0 | 5.0 | 0.00 | 0.00 | 0.00 | 100 | 1014.6 |
| 20260506182812 | 90 | 253 | 2.0 | 7.0 | 0.00 | 0.00 | 0.00 | 100 | 1014.6 |
| 20260506182312 | 90 | 241 | 2.0 | 8.0 | 0.00 | 0.00 | 0.00 | 100 | 1014.6 |
| 20260506181812 | 90 | 195 | 2.0 | 8.0 | 0.00 | 0.00 | 0.00 | 100 | 1014.6 |
| 20260506181312 | 90 | 258 | 2.0 | 8.0 | 0.00 | 0.00 | 0.00 | 100 | 1014.6 |
| 20260506180812 | 91 | 255 | 3.0 | 10.0 | 0.00 | 0.00 | 0.00 | 100 | 1014.6 |
| 20260506180312 | 91 | 285 | 2.0 | 6.0 | 0.00 | 0.00 | 0.00 | 100 | 1014.6 |
| 20260506175812 | 91 | 250 | 4.0 | 7.0 | 0.00 | 0.00 | 0.00 | 100 | 1014.6 |
| 20260506175312 | 91 | 236 | 1.0 | 7.0 | 0.00 | 0.00 | 0.00 | 100 | 1014.7 |
| 20260506174812 | 91 | 217 | 3.0 | 7.0 | 0.00 | 0.00 | 0.00 | 100 | 1014.7 |
| 20260506174312 | 91 | 289 | 4.0 | 8.0 | 0.00 | 0.00 | 0.00 | 100 | 1014.7 |
| 20260506173812 | 90 | 312 | 1.0 | 9.0 | 0.00 | 0.00 | 0.00 | 100 | 1014.7 |
| 20260506173312 | 91 | 309 | 2.0 | 6.0 | 0.00 | 0.00 | 0.00 | 100 | 1014.7 |
| 20260506172812 | 91 | 201 | 3.0 | 5.0 | 0.00 | 0.00 | 0.00 | 100 | 1014.8 |
| 20260506172312 | 91 | 125 | 1.0 | 6.0 | 0.00 | 0.00 | 0.00 | 100 | 1014.8 |
| 20260506171812 | 90 | 212 | 2.0 | 9.0 | 0.00 | 0.00 | 0.00 | 100 | 1014.9 |
| 20260506171312 | 90 | 261 | 2.0 | 8.0 | 0.00 | 0.00 | 0.00 | 100 | 1015.0 |
| 20260506170812 | 91 | 270 | 5.0 | 5.0 | 0.00 | 0.00 | 0.00 | 100 | 1015.1 |
| 20260506170312 | 90 | 184 | 2.0 | 7.0 | 0.00 | 0.00 | 0.00 | 100 | 1015.1 |
| 20260506165812 | 90 | 274 | 3.0 | 7.0 | 0.00 | 0.00 | 0.00 | 100 | 1015.2 |
| 20260506165312 | 90 | 181 | 2.0 | 7.0 | 0.00 | 0.00 | 0.00 | 100 | 1015.2 |
| 20260506164812 | 90 | 254 | 4.0 | 9.0 | 0.00 | 0.00 | 0.00 | 100 | 1015.2 |
| 20260506164312 | 90 | 261 | 1.0 | 4.0 | 0.00 | 0.00 | 0.00 | 100 | 1015.2 |
| 20260506163812 | 90 | 312 | 3.0 | 7.0 | 0.00 | 0.00 | 0.00 | 100 | 1015.1 |
| 20260506163312 | 90 | 247 | 0.0 | 5.0 | 0.00 | 0.00 | 0.00 | 100 | 1015.3 |
| 20260506162812 | 90 | 295 | 4.0 | 7.0 | 0.00 | 0.00 | 0.00 | 100 | 1015.3 |
| 20260506162312 | 89 | 164 | 2.0 | 5.0 | 0.00 | 0.00 | 0.00 | 100 | 1015.4 |
| 20260506161812 | 89 | 279 | 2.0 | 5.0 | 0.00 | 0.00 | 0.00 | 100 | 1015.3 |
| 20260506161312 | 89 | 272 | 1.0 | 6.0 | 0.00 | 0.00 | 0.00 | 100 | 1015.4 |
| 20260506160812 | 90 | 208 | 0.0 | 6.0 | 0.00 | 0.00 | 0.00 | 100 | 1015.4 |
| 20260506160312 | 90 | 247 | 4.0 | 6.0 | 0.00 | 0.00 | 0.00 | 100 | 1015.4 |
| 20260506155812 | 90 | 240 | 1.0 | 7.0 | 0.00 | 0.00 | 0.00 | 100 | 1015.5 |
| 20260506155312 | 90 | 234 | 3.0 | 9.0 | 0.00 | 0.00 | 0.00 | 100 | 1015.3 |
| 20260506154812 | 90 | 172 | 6.0 | 11.0 | 0.00 | 0.00 | 0.00 | 100 | 1015.3 |
| 20260506154312 | 89 | 233 | 1.0 | 9.0 | 0.00 | 0.00 | 0.00 | 100 | 1015.2 |
| 20260506153812 | 89 | 140 | 1.0 | 10.0 | 0.00 | 0.00 | 0.00 | 100 | 1015.0 |
| 20260506153313 | 89 | 205 | 4.0 | 9.0 | 0.00 | 0.00 | 0.00 | 100 | 1015.2 |
| 20260506152813 | 88 | 157 | 2.0 | 7.0 | 0.00 | 0.00 | 0.00 | 100 | 1015.2 |
| 20260506152313 | 88 | 178 | 5.0 | 8.0 | 0.00 | 0.00 | 0.00 | 100 | 1015.3 |
| 20260506151813 | 88 | 205 | 1.0 | 5.0 | 0.00 | 0.00 | 0.00 | 100 | 1015.2 |
| 20260506151313 | 87 | 149 | 5.0 | 9.0 | 0.00 | 0.00 | 0.00 | 100 | 1015.1 |
| 20260506150813 | 87 | 206 | 3.0 | 7.0 | 0.00 | 0.00 | 0.00 | 100 | 1015.2 |
| 20260506150313 | 87 | 215 | 4.0 | 7.0 | 0.00 | 0.00 | 0.00 | 100 | 1015.1 |
| 20260506145813 | 87 | 230 | 4.0 | 8.0 | 0.00 | 0.00 | 0.00 | 100 | 1015.1 |
| 20260506145313 | 86 | 178 | 6.0 | 8.0 | 0.00 | 0.00 | 0.00 | 100 | 1015.2 |
| 20260506144813 | 86 | 222 | 4.0 | 10.0 | 0.00 | 0.00 | 0.00 | 100 | 1015.2 |
| 20260506144313 | 86 | 175 | 2.0 | 9.0 | 0.00 | 0.00 | 0.00 | 100 | 1015.0 |
| 20260506143813 | 86 | 222 | 4.0 | 8.0 | 0.00 | 0.00 | 0.00 | 100 | 1015.0 |
| 20260506143313 | 86 | 233 | 3.0 | 10.0 | 0.00 | 0.00 | 0.00 | 100 | 1015.1 |
| 20260506142813 | 86 | 196 | 2.0 | 8.0 | 0.00 | 0.00 | 0.00 | 100 | 1015.3 |
| 20260506142313 | 86 | 205 | 2.0 | 8.0 | 0.00 | 0.00 | 0.00 | 100 | 1015.2 |
| 20260506141813 | 85 | 244 | 3.0 | 11.0 | 0.00 | 0.00 | 0.00 | 100 | 1015.2 |
| 20260506141313 | 85 | 260 | 2.0 | 11.0 | 0.00 | 0.00 | 0.00 | 100 | 1015.2 |
| 20260506140813 | 85 | 184 | 4.0 | 10.0 | 0.00 | 0.00 | 0.00 | 100 | 1015.2 |
| 20260506140313 | 85 | 177 | 1.0 | 8.0 | 0.00 | 0.00 | 0.00 | 100 | 1015.2 |
| 20260506135813 | 84 | 206 | 5.0 | 10.0 | 0.00 | 0.00 | 0.00 | 100 | 1015.2 |
| 20260506135313 | 84 | 198 | 5.0 | 9.0 | 0.00 | 0.00 | 0.00 | 100 | 1015.1 |
| 20260506134813 | 84 | 216 | 2.0 | 11.0 | 0.00 | 0.00 | 0.00 | 100 | 1015.1 |
| 20260506134313 | 84 | 230 | 5.0 | 11.0 | 0.00 | 0.00 | 0.00 | 100 | 1015.1 |
| 20260506133813 | 84 | 203 | 2.0 | 10.0 | 0.00 | 0.00 | 0.00 | 100 | 1015.1 |
| 20260506133313 | 84 | 203 | 4.0 | 8.0 | 0.00 | 0.00 | 0.00 | 100 | 1015.0 |
| 20260506132813 | 84 | 217 | 0.0 | 8.0 | 0.00 | 0.00 | 0.00 | 100 | 1014.9 |
| 20260506132313 | 83 | 219 | 5.0 | 6.0 | 0.00 | 0.00 | 0.00 | 100 | 1015.0 |
| 20260506131813 | 83 | 185 | 1.0 | 7.0 | 0.00 | 0.00 | 0.00 | 100 | 1014.9 |
| 20260506131313 | 83 | 174 | 3.0 | 6.0 | 0.00 | 0.00 | 0.00 | 100 | 1014.9 |
| 20260506130813 | 82 | 202 | 3.0 | 10.0 | 0.00 | 0.00 | 0.00 | 100 | 1014.9 |
| 20260506130313 | 82 | 225 | 3.0 | 8.0 | 0.00 | 0.00 | 0.00 | 100 | 1014.9 |
| 20260506125813 | 82 | 222 | 1.0 | 8.0 | 0.00 | 0.00 | 0.00 | 100 | 1014.8 |
| 20260506125313 | 81 | 175 | 7.0 | 8.0 | 0.00 | 0.00 | 0.00 | 100 | 1015.0 |
| 20260506124813 | 81 | 202 | 1.0 | 4.0 | 0.00 | 0.00 | 0.00 | 100 | 1014.9 |
| 20260506124313 | 81 | 154 | 0.0 | 3.0 | 0.00 | 0.00 | 0.00 | 100 | 1014.8 |
| 20260506123813 | 81 | 168 | 2.0 | 4.0 | 0.00 | 0.00 | 0.00 | 100 | 1014.6 |
| 20260506123313 | 80 | 232 | 2.0 | 6.0 | 0.00 | 0.00 | 0.00 | 100 | 1014.9 |
| 20260506122813 | 80 | 203 | 0.0 | 4.0 | 0.00 | 0.00 | 0.00 | 100 | 1014.8 |
| 20260506122313 | 80 | 178 | 0.0 | 4.0 | 0.00 | 0.00 | 0.00 | 100 | 1014.7 |
| 20260506121813 | 79 | 194 | 2.0 | 3.0 | 0.00 | 0.00 | 0.00 | 100 | 1014.7 |
| 20260506121313 | 79 | 156 | 0.0 | 2.0 | 0.00 | 0.00 | 0.00 | 100 | 1014.7 |
| 20260506120849 | 79 | 195 | 0.0 | 3.0 | 0.00 | 0.00 | 0.00 | 100 | 1014.6 |
| 20260506120813 | 79 | 195 | 0.0 | 3.0 | 0.00 | 0.00 | 0.00 | 100 | 1014.6 |
| 20260506120313 | 78 | 220 | 0.0 | 3.0 | 0.00 | 0.00 | 0.00 | 100 | 1014.6 |
| 20260506115813 | 78 | 175 | 0.0 | 2.0 | 0.00 | 0.00 | 0.00 | 100 | 1014.5 |
| 20260506115313 | 78 | 202 | 1.0 | 1.0 | 0.00 | 0.00 | 0.00 | 100 | 1014.4 |
| 20260506114813 | 78 | 164 | 0.0 | 0.0 | 0.00 | 0.00 | 0.00 | 100 | 1014.3 |
| 20260506114313 | 77 | 164 | 0.0 | 0.0 | 0.00 | 0.00 | 0.00 | 100 | 1014.2 |
| 20260506113813 | 77 | 164 | 0.0 | 0.0 | 0.00 | 0.00 | 0.00 | 100 | 1014.2 |
| 20260506113313 | 77 | 164 | 0.0 | 0.0 | 0.00 | 0.00 | 0.00 | 100 | 1014.2 |
| 20260506112813 | 77 | 164 | 0.0 | 0.0 | 0.00 | 0.00 | 0.00 | 100 | 1014.1 |
| 20260506112313 | 77 | 164 | 0.0 | 0.0 | 0.00 | 0.00 | 0.00 | 100 | 1014.1 |
| 20260506111813 | 77 | 164 | 0.0 | 0.0 | 0.00 | 0.00 | 0.00 | 100 | 1014.1 |
| 20260506111313 | 77 | 164 | 0.0 | 0.0 | 0.00 | 0.00 | 0.00 | 100 | 1014.1 |
| 20260506110813 | 77 | 164 | 0.0 | 0.0 | 0.00 | 0.00 | 0.00 | 100 | 1014.0 |
| 20260506110313 | 77 | 164 | 0.0 | 0.0 | 0.00 | 0.00 | 0.00 | 100 | 1014.0 |
| 20260506105813 | 77 | 164 | 0.0 | 0.0 | 0.00 | 0.00 | 0.00 | 100 | 1013.9 |
| 20260506105313 | 77 | 164 | 0.0 | 0.0 | 0.00 | 0.00 | 0.00 | 100 | 1013.9 |
| 20260506104813 | 77 | 164 | 0.0 | 0.0 | 0.00 | 0.00 | 0.00 | 100 | 1013.8 |
| 20260506104313 | 77 | 164 | 0.0 | 0.0 | 0.00 | 0.00 | 0.00 | 100 | 1013.8 |
| 20260506103813 | 77 | 164 | 0.0 | 0.0 | 0.00 | 0.00 | 0.00 | 100 | 1013.7 |
| 20260506103313 | 77 | 164 | 0.0 | 0.0 | 0.00 | 0.00 | 0.00 | 100 | 1013.7 |
| 20260506102813 | 77 | 164 | 0.0 | 0.0 | 0.00 | 0.00 | 0.00 | 100 | 1013.7 |
| 20260506102313 | 77 | 164 | 0.0 | 0.0 | 0.00 | 0.00 | 0.00 | 100 | 1013.5 |
| 20260506101813 | 77 | 164 | 0.0 | 0.0 | 0.00 | 0.00 | 0.00 | 100 | 1013.7 |
| 20260506101313 | 77 | 164 | 0.0 | 0.0 | 0.00 | 0.00 | 0.00 | 100 | 1013.7 |
| 20260506100813 | 77 | 164 | 0.0 | 0.0 | 0.00 | 0.00 | 0.00 | 100 | 1013.7 |
| 20260506100313 | 77 | 164 | 0.0 | 0.0 | 0.00 | 0.00 | 0.00 | 100 | 1013.8 |
| 20260506095813 | 78 | 164 | 0.0 | 0.0 | 0.00 | 0.00 | 0.00 | 100 | 1013.8 |
| 20260506095313 | 78 | 164 | 0.0 | 0.0 | 0.00 | 0.00 | 0.00 | 100 | 1013.8 |
| 20260506094813 | 78 | 164 | 0.0 | 0.0 | 0.00 | 0.00 | 0.00 | 100 | 1013.8 |
| 20260506094313 | 78 | 164 | 0.0 | 0.0 | 0.00 | 0.00 | 0.00 | 100 | 1013.8 |
| 20260506093813 | 78 | 164 | 0.0 | 0.0 | 0.00 | 0.00 | 0.00 | 100 | 1013.6 |
| 20260506093313 | 78 | 164 | 0.0 | 0.0 | 0.00 | 0.00 | 0.00 | 100 | 1013.5 |
| 20260506092813 | 78 | 164 | 0.0 | 0.0 | 0.00 | 0.00 | 0.00 | 100 | 1013.4 |
| 20260506092313 | 78 | 164 | 0.0 | 0.0 | 0.00 | 0.00 | 0.00 | 100 | 1013.6 |
| 20260506091813 | 78 | 164 | 0.0 | 0.0 | 0.00 | 0.00 | 0.00 | 100 | 1013.5 |
| 20260506091313 | 78 | 164 | 0.0 | 0.0 | 0.00 | 0.00 | 0.00 | 100 | 1013.5 |
| 20260506090907 | 78 | 164 | 0.0 | 1.0 | 0.00 | 0.00 | 0.00 | 100 | 1013.5 |
| 20260506090813 | 78 | 164 | 0.0 | 1.0 | 0.00 | 0.00 | 0.00 | 100 | 1013.5 |
| 20260506090313 | 78 | 171 | 0.0 | 1.0 | 0.00 | 0.00 | 0.00 | 100 | 1013.5 |
| 20260506085813 | 78 | 170 | 1.0 | 1.0 | 0.00 | 0.00 | 0.00 | 100 | 1013.5 |
| 20260506085313 | 78 | 147 | 0.0 | 1.0 | 0.00 | 0.00 | 0.00 | 100 | 1013.4 |
| 20260506084813 | 78 | 171 | 0.0 | 3.0 | 0.00 | 0.00 | 0.00 | 100 | 1013.4 |
| 20260506084313 | 78 | 206 | 0.0 | 2.0 | 0.00 | 0.00 | 0.00 | 100 | 1013.3 |
| 20260506083813 | 78 | 215 | 1.0 | 1.0 | 0.00 | 0.00 | 0.00 | 100 | 1013.4 |
| 20260506083424 | 78 | 157 | 0.0 | 0.0 | 0.00 | 0.00 | 0.00 | 100 | 1013.4 |
| 20260506083313 | 78 | 192 | 0.0 | 3.0 | 0.00 | 0.00 | 0.00 | 100 | 1013.4 |
| 20260506082813 | 78 | 157 | 0.0 | 0.0 | 0.00 | 0.00 | 0.00 | 100 | 1013.4 |
| 20260506082353 | 78 | 157 | 0.0 | 0.0 | 0.00 | 0.00 | 0.00 | 100 | 1011.0 |
| 20260506082313 | 78 | 157 | 0.0 | 0.0 | 0.00 | 0.00 | 0.00 | 100 | 1011.0 |
| 20260506081813 | 78 | 157 | 0.0 | 0.0 | 0.00 | 0.00 | 0.00 | 100 | 1010.9 |
| 20260506081559 | 78 | 175 | 0.0 | 0.0 | 0.00 | 0.00 | 0.00 | 100 | 1011.4 |
| 20260506081313 | 78 | 157 | 0.0 | 0.0 | 0.00 | 0.00 | 0.00 | 100 | 1010.9 |
| 20260506080813 | 78 | 175 | 0.0 | 0.0 | 0.00 | 0.00 | 0.00 | 100 | 1011.4 |
| 20260506080313 | 78 | 175 | 0.0 | 0.0 | 0.00 | 0.00 | 0.00 | 100 | 1010.9 |
| 20260506073313 | 78 | 153 | 0.0 | 0.0 | 0.00 | 0.00 | 0.00 | 100 | 1013.5 |
| 20260506073136 | 78 | 188 | 0.0 | 0.0 | 0.00 | 0.00 | 0.00 | 100 | 1013.6 |
| 20260506072813 | 78 | 153 | 0.0 | 0.0 | 0.00 | 0.00 | 0.00 | 100 | 1013.7 |
| 20260506072313 | 78 | 153 | 0.0 | 0.0 | 0.00 | 0.00 | 0.00 | 100 | 1013.7 |
| 20260506071813 | 78 | 188 | 0.0 | 0.0 | 0.00 | 0.00 | 0.00 | 100 | 1013.6 |
| 20260506071313 | 78 | 188 | 0.0 | 0.0 | 0.00 | 0.00 | 0.00 | 100 | 1013.5 |
| 20260506070813 | 78 | 188 | 0.0 | 0.0 | 0.00 | 0.00 | 0.00 | 100 | 1013.7 |
| 20260506070313 | 78 | 188 | 0.0 | 0.0 | 0.00 | 0.00 | 0.00 | 100 | 1014.0 |
| 20260506062313 | 78 | 188 | 0.0 | 0.0 | 0.00 | 0.00 | 0.00 | 100 | 1014.1 |
| 20260506061813 | 78 | 188 | 0.0 | 0.0 | 0.00 | 0.00 | 0.00 | 100 | 1014.1 |
| 20260506061314 | 78 | 188 | 0.0 | 1.0 | 0.00 | 0.00 | 0.00 | 100 | 1014.2 |
| 20260506060813 | 78 | 122 | 0.0 | 0.0 | 0.00 | 0.00 | 0.00 | 100 | 1014.3 |
| 20260506060644 | 78 | 122 | 0.0 | 0.0 | 0.00 | 0.00 | 0.00 | 100 | 1014.3 |
| 20260506060313 | 78 | 122 | 0.0 | 0.0 | 0.00 | 0.00 | 0.00 | 100 | 1014.3 |
| 20260506051313 | 79 | 168 | 0.0 | 0.0 | 0.00 | 0.00 | 0.00 | 100 | 1014.6 |
| 20260506050813 | 79 | 168 | 0.0 | 0.0 | 0.00 | 0.00 | 0.00 | 100 | 1014.5 |
| 20260506050313 | 79 | 168 | 0.0 | 0.0 | 0.00 | 0.00 | 0.00 | 100 | 1014.5 |
| 20260506044813 | 79 | 168 | 0.0 | 0.0 | 0.00 | 0.00 | 0.00 | 100 | 1014.7 |
| 20260506044313 | 79 | 168 | 0.0 | 0.0 | 0.00 | 0.00 | 0.00 | 100 | 1014.7 |
| 20260506043813 | 79 | 168 | 0.0 | 0.0 | 0.00 | 0.00 | 0.00 | 100 | 1014.7 |
| 20260506043715 | 79 | 168 | 0.0 | 0.0 | 0.00 | 0.00 | 0.00 | 100 | 1014.7 |
| 20260506043313 | 79 | 168 | 0.0 | 0.0 | 0.00 | 0.00 | 0.00 | 100 | 1014.7 |
| 20260506042813 | 79 | 168 | 0.0 | 0.0 | 0.00 | 0.00 | 0.00 | 100 | 1014.7 |
| 20260506042551 | 79 | 168 | 0.0 | 0.0 | 0.00 | 0.00 | 0.00 | 100 | 1015.1 |
| 20260506042314 | 79 | 168 | 0.0 | 0.0 | 0.00 | 0.00 | 0.00 | 100 | 1014.9 |
| 20260506042148 | 79 | 168 | 0.0 | 0.0 | 0.00 | 0.00 | 0.00 | 100 | 1015.0 |
| 20260506041839 | 79 | 168 | 0.0 | 0.0 | 0.00 | 0.00 | 0.00 | 100 | 1015.0 |
| 20260506041814 | 79 | 168 | 0.0 | 0.0 | 0.00 | 0.00 | 0.00 | 100 | 1015.1 |
| 20260506041314 | 79 | 168 | 0.0 | 0.0 | 0.00 | 0.00 | 0.00 | 100 | 1015.0 |
| 20260506040814 | 79 | 168 | 0.0 | 0.0 | 0.00 | 0.00 | 0.00 | 100 | 1014.9 |
| 20260506040314 | 80 | 168 | 0.0 | 0.0 | 0.00 | 0.00 | 0.00 | 100 | 1014.7 |
| 20260506035814 | 80 | 168 | 0.0 | 0.0 | 0.00 | 0.00 | 0.00 | 100 | 1014.6 |
| 20260506035314 | 80 | 168 | 0.0 | 0.0 | 0.00 | 0.00 | 0.00 | 100 | 1014.7 |
| 20260506034814 | 80 | 168 | 0.0 | 0.0 | 0.00 | 0.00 | 0.00 | 100 | 1014.6 |
| 20260506034314 | 80 | 168 | 0.0 | 0.0 | 0.00 | 0.00 | 0.00 | 100 | 1014.6 |
| 20260506033814 | 80 | 168 | 0.0 | 0.0 | 0.00 | 0.00 | 0.00 | 100 | 1014.5 |
| 20260506033314 | 80 | 168 | 0.0 | 0.0 | 0.00 | 0.00 | 0.00 | 100 | 1014.5 |
| 20260506032814 | 80 | 168 | 0.0 | 0.0 | 0.00 | 0.00 | 0.00 | 100 | 1014.6 |
| 20260506032314 | 80 | 168 | 0.0 | 0.0 | 0.00 | 0.00 | 0.00 | 100 | 1014.6 |
| 20260506031814 | 80 | 168 | 0.0 | 1.0 | 0.00 | 0.00 | 0.00 | 100 | 1014.6 |
| 20260506031314 | 80 | 175 | 0.0 | 2.0 | 0.00 | 0.00 | 0.00 | 100 | 1014.7 |
| 20260506030814 | 80 | 7 | 0.0 | 0.0 | 0.00 | 0.00 | 0.00 | 100 | 1014.6 |
| 20260506030337 | 80 | 7 | 0.0 | 0.0 | 0.00 | 0.00 | 0.00 | 100 | 1014.7 |
| 20260506030314 | 80 | 7 | 0.0 | 0.0 | 0.00 | 0.00 | 0.00 | 100 | 1014.7 |
| 20260506025814 | 80 | 7 | 0.0 | 0.0 | 0.00 | 0.00 | 0.00 | 100 | 1014.7 |
| 20260506025314 | 80 | 7 | 0.0 | 0.0 | 0.00 | 0.00 | 0.00 | 100 | 1014.6 |
| 20260506024814 | 80 | 7 | 0.0 | 0.0 | 0.00 | 0.00 | 0.00 | 100 | 1014.4 |
| 20260506024314 | 80 | 7 | 0.0 | 0.0 | 0.00 | 0.00 | 0.00 | 100 | 1014.3 |
| 20260506023814 | 80 | 7 | 0.0 | 0.0 | 0.00 | 0.00 | 0.00 | 100 | 1014.0 |
| 20260506023314 | 80 | 7 | 0.0 | 0.0 | 0.00 | 0.00 | 0.00 | 100 | 1013.9 |
| 20260506022814 | 80 | 7 | 0.0 | 0.0 | 0.00 | 0.00 | 0.00 | 100 | 1013.9 |
| 20260506022314 | 81 | 7 | 0.0 | 0.0 | 0.00 | 0.00 | 0.00 | 100 | 1013.9 |
| 20260506021814 | 80 | 7 | 0.0 | 0.0 | 0.00 | 0.00 | 0.00 | 100 | 1013.8 |
| 20260506021544 | 81 | 7 | 0.0 | 0.0 | 0.00 | 0.00 | 0.00 | 100 | 1013.8 |
| 20260506021314 | 81 | 7 | 0.0 | 0.0 | 0.00 | 0.00 | 0.00 | 100 | 1013.8 |
| 20260506020814 | 81 | 7 | 0.0 | 0.0 | 0.00 | 0.00 | 0.00 | 100 | 1013.8 |
| 20260506020335 | 81 | 7 | 0.0 | 0.0 | 0.00 | 0.00 | 0.00 | 100 | 1013.8 |
| 20260506020314 | 81 | 7 | 0.0 | 0.0 | 0.00 | 0.00 | 0.00 | 100 | 1013.8 |
| 20260506015814 | 81 | 7 | 0.0 | 0.0 | 0.00 | 0.00 | 0.00 | 100 | 1013.8 |
| 20260506015314 | 81 | 7 | 0.0 | 0.0 | 0.00 | 0.00 | 0.00 | 100 | 1013.7 |
| 20260506014814 | 81 | 7 | 0.0 | 0.0 | 0.00 | 0.00 | 0.00 | 100 | 1013.7 |
| 20260506014733 | 81 | 7 | 0.0 | 0.0 | 0.00 | 0.00 | 0.00 | 100 | 1013.6 |
| 20260506014314 | 81 | 7 | 0.0 | 0.0 | 0.00 | 0.00 | 0.00 | 100 | 1013.6 |
| 20260506013814 | 81 | 7 | 0.0 | 0.0 | 0.00 | 0.00 | 0.00 | 100 | 1013.5 |
| 20260506013314 | 81 | 7 | 0.0 | 0.0 | 0.00 | 0.00 | 0.00 | 100 | 1013.4 |
| 20260506012814 | 81 | 7 | 0.0 | 0.0 | 0.00 | 0.00 | 0.00 | 100 | 1013.4 |
| 20260506012314 | 81 | 7 | 0.0 | 0.0 | 0.00 | 0.00 | 0.00 | 100 | 1013.4 |
| 20260506011814 | 81 | 7 | 0.0 | 0.0 | 0.00 | 0.00 | 0.00 | 100 | 1013.3 |
| 20260506011314 | 81 | 7 | 0.0 | 0.0 | 0.00 | 0.00 | 0.00 | 100 | 1013.4 |
| 20260506010814 | 81 | 7 | 0.0 | 0.0 | 0.00 | 0.00 | 0.00 | 100 | 1013.3 |
| 20260506010314 | 82 | 7 | 0.0 | 0.0 | 0.00 | 0.00 | 0.00 | 100 | 1011.2 |
| 20260506005814 | 81 | 7 | 0.0 | 0.0 | 0.00 | 0.00 | 0.00 | 100 | 1011.1 |
| 20260506005314 | 82 | 7 | 0.0 | 0.0 | 0.00 | 0.00 | 0.00 | 100 | 1011.2 |
| 20260506004814 | 82 | 7 | 0.0 | 0.0 | 0.00 | 0.00 | 0.00 | 100 | 1011.2 |
| 20260506004314 | 82 | 7 | 0.0 | 0.0 | 0.00 | 0.00 | 0.00 | 100 | 1011.4 |
| 20260506003814 | 82 | 7 | 0.0 | 0.0 | 0.00 | 0.00 | 0.00 | 100 | 1010.8 |
| 20260506003314 | 82 | 7 | 0.0 | 0.0 | 0.00 | 0.00 | 0.00 | 100 | 1011.3 |
| 20260506002814 | 83 | 7 | 0.0 | 0.0 | 0.00 | 0.00 | 0.00 | 100 | 1012.9 |
| 20260506002314 | 83 | 7 | 0.0 | 0.0 | 0.00 | 0.00 | 0.00 | 100 | 1012.8 |
| 20260506001814 | 83 | 7 | 0.0 | 0.0 | 0.00 | 0.00 | 0.00 | 100 | 1012.7 |
| 20260506001314 | 83 | 7 | 0.0 | 0.0 | 0.00 | 0.00 | 0.00 | 100 | 1012.6 |
| 20260506001001 | 83 | 1 | 2.0 | 3.0 | 0.00 | 0.00 | 0.00 | 100 | 1010.9 |
| 20260506000909 | 83 | 1 | 2.0 | 3.0 | 0.00 | 0.00 | 0.00 | 100 | 1010.9 |
| 20260506000814 | 83 | 7 | 0.0 | 0.0 | 0.00 | 0.00 | 0.00 | 100 | 1012.3 |
| 20260506000314 | 83 | 4 | 0.0 | 4.0 | 0.00 | 0.00 | 0.00 | 100 | 1010.7 |
| 20260505235814 | 83 | 1 | 2.0 | 3.0 | 0.00 | 0.00 | 0.00 | 100 | 1010.9 |
| 20260505235314 | 83 | 18 | 0.0 | 4.0 | 0.00 | 0.00 | 0.00 | 100 | 1011.0 |
| 20260505234814 | 84 | 4 | 4.0 | 4.0 | 0.00 | 0.00 | 0.00 | 100 | 1010.6 |
| 20260505234314 | 84 | 5 | 2.0 | 6.0 | 0.00 | 0.00 | 0.00 | 100 | 1010.6 |
| 20260505234309 | 84 | 16 | 3.0 | 7.0 | 0.00 | 0.00 | 0.00 | 100 | 1010.5 |
| 20260505233814 | 84 | 16 | 3.0 | 7.0 | 0.00 | 0.00 | 0.00 | 100 | 1010.5 |
| 20260505233314 | 84 | 317 | 0.0 | 6.0 | 0.00 | 0.00 | 0.00 | 100 | 1010.6 |